Date,TemperatureHighF,TemperatureAvgF,TemperatureLowF,DewpointHighF,DewpointAvgF,DewpointLowF,HumidityHigh,HumidityAvg,HumidityLow,PressureMaxIn,PressureMinIn,WindSpeedMaxMPH,WindSpeedAvgMPH,GustSpeedMaxMPH,PrecipitationSumIn
2013-2-1,69,51,38,51,45,36,98,80,51,30.25,30.12,4,0,4,0.00
2013-2-2,62,53,46,53,48,43,94,84,70,30.27,30.18,4,0,4,0.00
2013-2-3,66,52,44,54,49,42,98,87,59,30.23,30.09,4,0,4,0.00
2013-2-4,68,51,39,53,46,39,98,85,57,30.20,30.03,4,0,4,0.00
2013-2-5,68,53,40,55,48,39,99,83,59,30.09,29.96,9,1,9,0.00
2013-2-6,57,48,38,47,44,37,96,86,67,30.20,30.09,4,0,4,0.00
2013-2-7,59,44,33,48,40,32,98,86,59,30.17,29.99,4,1,4,0.00
2013-2-8,49,44,41,44,42,40,98,92,79,30.00,29.91,7,1,7,0.47
2013-2-9,57,44,36,42,37,33,96,78,43,30.11,29.97,4,1,4,0.12
2013-2-10,60,44,31,40,34,30,96,74,38,30.12,30.02,5,0,5,0.00
2013-2-11,62,45,32,38,35,30,95,71,39,30.26,30.08,6,1,6,0.00
2013-2-12,66,48,33,40,36,31,93,68,33,30.37,30.25,5,1,5,0.00
2013-2-13,66,48,33,42,38,32,96,71,37,30.34,30.20,6,1,6,0.00
2013-2-14,69,50,35,46,41,33,95,72,40,30.26,30.14,6,1,6,0.00
2013-2-15,74,54,37,50,43,36,96,70,33,30.28,30.20,6,1,6,0.00
2013-2-16,72,53,38,50,41,36,92,68,30,30.23,30.02,5,1,5,0.00
2013-2-17,72,52,38,48,42,34,90,69,39,30.03,29.92,6,1,6,0.00
2013-2-18,71,52,38,48,42,37,95,71,38,30.03,29.87,6,1,6,0.00
2013-2-19,56,47,38,43,40,35,96,78,50,29.95,29.70,8,1,8,0.66
2013-2-20,54,42,37,43,38,35,97,87,62,30.08,29.78,2,0,2,0.01
2013-2-21,59,47,38,42,38,34,90,74,45,30.18,30.02,6,1,6,0.00
2013-2-22,63,47,32,43,38,31,97,75,46,30.26,30.17,5,1,5,0.00
2013-2-23,62,48,36,45,40,35,96,75,50,30.24,30.05,10,1,10,0.00
2013-2-24,65,49,39,39,36,33,87,64,33,30.26,30.13,6,1,6,0.00
2013-2-25,68,49,34,40,37,32,96,67,31,30.28,30.11,5,1,5,0.00
2013-2-26,68,50,36,42,38,34,91,68,33,30.21,30.09,7,1,7,0.00
2013-2-27,71,52,36,44,38,33,95,64,29,30.34,30.21,5,1,5,0.00
2013-2-28,73,54,37,46,40,33,90,63,33,30.43,30.33,4,1,4,0.00